YUNHAI 3

Satellite information

Favourite Embed

Satellite Type and Status

PAYLOADIN ORBIT

Key statistics

Satellite YUNHAI 3 at a glance.

Uptime

1070

Days in orbit

Revolutions

≈ 14.1

Per day

Orbit

SSO

Sun Synchronous Orbit

Inclination

98.8

Latest

Satellite identification and parameters

Extended collection of information and parameters for YUNHAI 3.

Object identification

Identified? True

Debris? False

Object name: YUNHAI 3

International designator: 2022-151A

Object number (NORAD): 54235

Object ID (CCSDS): 54235

Country: PEOPLES REPUBLIC OF CHINA (PRC)

Current information (Y/N): Y

RCS size: LARGE

Orbital parameters

Period: 101.879 minutes

Inclination: 98.8218 deg

SMA: 7225.734 km

Apoapsis: 848.984 km

Periapsis: 846.214 km

RAAN: 294.8475 deg

Eccentricy: 0.00019164

Argument of periapsis: 75.9058 deg

Mean anomaly: 284.2327 deg

Mean motion: 14.13447854 rev/day

Mean motion (dot): 0.00000059 rev/day2

B* drag term: 0.000054577661 1/REarth

Two-line elements (TLE)

Creation date: Oct. 16, 2025, 2:37 a.m.

Reference frame: TEME

Reference center: EARTH

Epoch: Oct. 15, 2025, 11:36 p.m. UTC

TLE line 0: 0 YUNHAI 3

TLE line 1: 1 54235U 22151A 25288.98338845 .00000059 00000-0 54578-4 0 9990

TLE line 2: 2 54235 98.8218 294.8475 0001916 75.9058 284.2327 14.13447854150440

Live tracking on map

Real-time ground track for satellite YUNHAI 3.

In-orbit conjunctions

There are no conjunctions computed for YUNHAI 3, at the moment. Check back to stay up to date, as we update our databases every day.

Go to all conjunctions

Associated space launch

Chinese satellite reported for atmospheric/ocean/environmental/spatial parameter research purposes, details TBD.

YUNHAI 3 was lifted into orbit during the mission ‘Long March 6A | Yunhai 3’, on board a Long March 6A space rocket.

The launch took place on Nov. 11, 2022, 10:52 p.m. from Launch Complex 9A.

For more information about the launch, click the button.

Launch to space Long March 6A | Yunhai 3
Long March 6A | Yunhai 3

Agency: N/A

Status: Launch Successful

Launch date: Nov. 11, 2022, 10:52 p.m. UTC

Rocket: Long March 6A

Launch pad: Launch Complex 9A

Location: Taiyuan Satellite Launch Center, People's Republic of China

...

Latest news about this satellite

There are no fresh news available about this satellite. Check back as we update our databases every day.


Newsletter sign-up

Weekly statistics, charts and insights to help you stay on top of the space industry.